Weather History for KFBL - April, 2014

Change the Weather History Date:

Tuesday, April 29, 2014

  Actual Average Record
Temperature  
Mean Temperature 40 °F -  
Max Temperature 46 °F 64 °F 88 °F (1952)
Min Temperature 35 °F 39 °F 23 °F (1958)
Degree Days  
Heating Degree Days 24    
Moisture  
Dew Point 35 °F    
Average Humidity 82    
Maximum Humidity 87    
Minimum Humidity 66    
Precipitation  
Precipitation 0.40 in - - ()
Sea Level Pressure  
Sea Level Pressure 29.65 in    
Wind  
Wind Speed 13 mph (North)    
Max Wind Speed 20 mph    
Max Gust Speed 28 mph    
Visibility 8 miles    
Events Rain , Snow    
Averages and records for this station are not official NWS values.
T = Trace of Precipitation, MM = Missing Value Source: NWS Daily Summary

Daily Weather History Graph

Daily Weather History Graph

Search for Another Location

Airport or City:

Trip Planner

Search our weather history database for the weather conditions in past years. The results will help you decide how hot, cold, wet, or windy it might be!

Date:

Astronomy

Apr. 29, 2014 Rise Set
Actual Time 6:07 AM CDT 8:14 PM CDT
Civil Twilight 5:35 AM CDT 8:46 PM CDT
Nautical Twilight 4:56 AM CDT 9:25 PM CDT
Astronomical Twilight 4:13 AM CDT 10:09 PM CDT
Moon 6:25 AM CDT (4/29) 8:56 PM CDT (4/29)
Length of Visible Light 15h 11m
Length of Day
14h 07m
New Moon, 0% of the Moon is Illuminated
Apr 29
New Moon
May 6
First Quarter
May 14
Full
May 21
Last Quarter
May 28
New

Hourly Weather History & Observations

Time (CDT) Temp. Windchill Dew Point Humidity Pressure Visibility Wind Dir Wind Speed Gust Speed Precip Events Conditions
12:14 AM 46.4 °F 40.7 °F 35.6 °F 66% 29.62 in 7.0 mi NE 12.7 mph 21.9 mph N/A Rain Light Rain
12:33 AM 44.6 °F 38.1 °F 37.4 °F 76% 29.61 in 7.0 mi NE 13.8 mph 19.6 mph 0.01 in Rain Light Rain
12:54 AM 44.6 °F 38.1 °F 37.4 °F 76% 29.62 in 10.0 mi NE 13.8 mph 18.4 mph 0.03 in Rain Light Rain
1:14 AM 44.6 °F 38.8 °F 37.4 °F 76% 29.61 in 10.0 mi NNE 11.5 mph 20.7 mph 0.02 in Rain Light Rain
1:33 AM 44.6 °F 38.4 °F 37.4 °F 76% 29.61 in 10.0 mi NE 12.7 mph - 0.04 in Rain Light Rain
1:54 AM 42.8 °F 36.6 °F 35.6 °F 76% 29.60 in 10.0 mi NE 11.5 mph 18.4 mph 0.04 in   Overcast
2:14 AM 42.8 °F 35.8 °F 35.6 °F 76% 29.60 in 10.0 mi NE 13.8 mph 19.6 mph N/A   Light Drizzle
2:34 AM 42.8 °F 37.0 °F 35.6 °F 76% 29.60 in 10.0 mi NNE 10.4 mph 19.6 mph N/A   Light Drizzle
2:54 AM 42.8 °F 35.8 °F 35.6 °F 76% 29.59 in 10.0 mi NNE 13.8 mph 19.6 mph N/A Rain Light Rain
3:14 AM 42.8 °F 35.4 °F 35.6 °F 76% 29.59 in 10.0 mi NNE 15.0 mph 19.6 mph N/A   Light Drizzle
3:34 AM 42.8 °F 36.6 °F 35.6 °F 76% 29.59 in 7.0 mi NNE 11.5 mph 17.3 mph N/A   Drizzle
3:54 AM 42.8 °F 37.0 °F 37.4 °F 81% 29.59 in 7.0 mi NE 10.4 mph 17.3 mph 0.01 in Rain Light Rain
4:14 AM 42.8 °F 36.2 °F 37.4 °F 81% 29.59 in 10.0 mi NNE 12.7 mph - N/A   Drizzle
4:34 AM 42.8 °F 36.6 °F 37.4 °F 81% 29.59 in 10.0 mi NE 11.5 mph 19.6 mph N/A   Light Drizzle
4:54 AM 42.8 °F 36.2 °F 37.4 °F 81% 29.59 in 7.0 mi NE 12.7 mph 20.7 mph N/A   Overcast
5:13 AM 42.8 °F 37.0 °F 37.4 °F 81% 29.60 in 7.0 mi NE 10.4 mph 19.6 mph N/A Rain Light Rain
5:34 AM 42.8 °F 36.2 °F 37.4 °F 81% 29.59 in 7.0 mi NNE 12.7 mph 18.4 mph N/A Rain Light Rain
5:54 AM 42.8 °F 36.6 °F 37.4 °F 81% 29.59 in 7.0 mi NNE 11.5 mph 18.4 mph 0.01 in Rain Light Rain
6:14 AM 42.8 °F 36.6 °F 37.4 °F 81% 29.60 in 10.0 mi NE 11.5 mph 17.3 mph 0.01 in Rain Light Rain
6:34 AM 42.8 °F 36.6 °F 37.4 °F 81% 29.60 in 7.0 mi NNE 11.5 mph 18.4 mph 0.02 in Rain Rain
6:54 AM 42.8 °F 36.2 °F 37.4 °F 81% 29.60 in 10.0 mi NNE 12.7 mph 19.6 mph 0.02 in Rain Light Rain
7:14 AM 42.8 °F 36.6 °F 37.4 °F 81% 29.60 in 10.0 mi NNE 11.5 mph 20.7 mph N/A Rain Light Rain
7:34 AM 42.8 °F 35.8 °F 37.4 °F 81% 29.60 in 10.0 mi NNE 13.8 mph 20.7 mph 0.01 in Rain Light Rain
7:54 AM 42.8 °F 36.2 °F 37.4 °F 81% 29.60 in 7.0 mi North 12.7 mph 19.6 mph 0.02 in Rain Light Rain
8:14 AM 41.0 °F 32.8 °F 35.6 °F 81% 29.60 in 10.0 mi NNE 16.1 mph 25.3 mph N/A Rain Light Rain
8:34 AM 39.2 °F 30.5 °F 35.6 °F 87% 29.61 in 7.0 mi NNE 16.1 mph 25.3 mph N/A Rain Light Rain
8:53 AM 39.2 °F 31.6 °F 35.6 °F 87% 29.61 in 10.0 mi NNE 12.7 mph 25.3 mph N/A   Light Drizzle
9:14 AM 39.2 °F 31.2 °F 35.6 °F 87% 29.61 in 10.0 mi NNE 13.8 mph 19.6 mph 0.01 in Rain Light Rain
9:34 AM 41.0 °F 33.1 °F 35.6 °F 81% 29.62 in 10.0 mi North 15.0 mph 19.6 mph 0.01 in Rain Light Rain
9:53 AM 39.2 °F 29.6 °F 35.6 °F 87% 29.61 in 7.0 mi NNE 19.6 mph 27.6 mph 0.01 in   Light Drizzle
10:14 AM 39.2 °F 30.2 °F 33.8 °F 81% 29.62 in 7.0 mi North 17.3 mph 24.2 mph 0.01 in Rain Rain
10:34 AM 39.2 °F 30.8 °F 33.8 °F 81% 29.62 in 10.0 mi North 15.0 mph 23.0 mph 0.01 in Rain Light Rain
10:54 AM 37.4 °F 29.3 °F 33.8 °F 87% 29.62 in 7.0 mi North 12.7 mph 21.9 mph 0.03 in Rain Rain
11:14 AM 37.4 °F 28.9 °F 33.8 °F 87% 29.62 in 7.0 mi North 13.8 mph 20.7 mph 0.01 in Rain Light Rain
11:34 AM 37.4 °F 29.3 °F 32.0 °F 81% 29.62 in 4.0 mi North 12.7 mph 21.9 mph 0.02 in   Overcast
11:54 AM 37.4 °F 28.9 °F 33.8 °F 87% 29.62 in 7.0 mi North 13.8 mph 20.7 mph 0.03 in Rain Light Rain
12:14 PM 39.2 °F 29.8 °F 33.8 °F 81% 29.62 in 7.0 mi North 18.4 mph - 0.01 in Rain Light Rain
12:34 PM 39.2 °F 30.2 °F 33.8 °F 81% 29.63 in 5.0 mi North 17.3 mph 21.9 mph 0.02 in Rain Light Rain
12:54 PM 39.2 °F 29.8 °F 33.8 °F 81% 29.63 in 7.0 mi North 18.4 mph 24.2 mph 0.03 in Rain Light Rain
1:14 PM 39.2 °F 31.6 °F 33.8 °F 81% 29.63 in 7.0 mi North 12.7 mph 23.0 mph 0.02 in Rain Rain
1:34 PM 39.2 °F 31.6 °F 35.6 °F 87% 29.63 in 10.0 mi North 12.7 mph 21.9 mph 0.03 in Rain Light Rain
1:54 PM 39.2 °F 32.0 °F 35.6 °F 87% 29.63 in 10.0 mi North 11.5 mph 25.3 mph 0.03 in Rain Light Rain
2:14 PM 39.2 °F 30.5 °F 35.6 °F 87% 29.63 in 10.0 mi North 16.1 mph 24.2 mph N/A Rain Light Rain
2:33 PM 39.2 °F 31.2 °F 35.6 °F 87% 29.64 in 10.0 mi North 13.8 mph 21.9 mph N/A   Light Drizzle
2:54 PM 39.2 °F 30.5 °F 35.6 °F 87% 29.65 in 7.0 mi North 16.1 mph 21.9 mph N/A Rain Light Rain
3:14 PM 39.2 °F 30.5 °F 33.8 °F 81% 29.65 in 4.0 mi North 16.1 mph 23.0 mph 0.01 in Rain Light Rain
3:34 PM 39.2 °F 30.8 °F 35.6 °F 87% 29.66 in 5.0 mi North 15.0 mph 21.9 mph 0.02 in Rain Rain
4:14 PM 39.2 °F 30.5 °F 33.8 °F 81% 29.66 in 10.0 mi North 16.1 mph - 0.01 in Rain Light Rain
4:34 PM 39.2 °F 31.2 °F 33.8 °F 81% 29.67 in 10.0 mi North 13.8 mph 18.4 mph 0.01 in Rain Light Rain
4:54 PM 37.4 °F 28.9 °F 33.8 °F 87% 29.67 in 5.0 mi North 13.8 mph 20.7 mph 0.02 in Rain Light Rain
5:14 PM 37.4 °F 29.3 °F 33.8 °F 87% 29.68 in 5.0 mi North 12.7 mph 20.7 mph 0.01 in Rain Rain
5:34 PM 37.4 °F 29.3 °F 33.8 °F 87% 29.69 in 5.0 mi North 12.7 mph - 0.03 in Rain Light Rain
5:54 PM 37.4 °F 30.3 °F 33.8 °F 87% 29.70 in 5.0 mi North 10.4 mph 16.1 mph 0.03 in Rain Light Rain
6:14 PM 37.4 °F 28.9 °F 33.8 °F 87% 29.70 in 4.0 mi North 13.8 mph 20.7 mph N/A Rain Light Rain
6:34 PM 37.4 °F 30.3 °F 32.0 °F 81% 29.71 in 5.0 mi North 10.4 mph - 0.02 in Rain Light Rain
6:54 PM 35.6 °F 28.6 °F 30.2 °F 81% 29.72 in 2.5 mi NNW 9.2 mph - 0.03 in   Overcast
7:13 PM 35.6 °F 28.6 °F 30.2 °F 81% 29.72 in 3.0 mi NNW 9.2 mph - 0.01 in Rain Light Rain
7:34 PM 35.6 °F 28.0 °F 30.2 °F 81% 29.72 in 4.0 mi North 10.4 mph - 0.02 in   Overcast
7:54 PM 35.6 °F 28.6 °F 30.2 °F 81% 29.73 in 3.0 mi NNW 9.2 mph - 0.03 in Rain Light Rain
8:14 PM 35.6 °F 28.0 °F 30.2 °F 81% 29.73 in 4.0 mi NNW 10.4 mph - N/A Snow Light Snow
8:34 PM 35.6 °F 29.2 °F 30.2 °F 81% 29.73 in 5.0 mi NNW 8.1 mph - N/A   Overcast
8:54 PM 35.6 °F 28.0 °F 32.0 °F 87% 29.73 in 7.0 mi NNW 10.4 mph - 0.01 in   Overcast
9:14 PM 35.6 °F 29.2 °F 32.0 °F 87% 29.74 in 7.0 mi NNW 8.1 mph - N/A Snow Light Snow
9:34 PM 37.4 °F 31.4 °F 32.0 °F 81% 29.74 in 7.0 mi NNW 8.1 mph - N/A   Overcast
9:54 PM 37.4 °F 30.8 °F 32.0 °F 81% 29.74 in 7.0 mi NNW 9.2 mph - N/A Snow Light Snow
10:14 PM 37.4 °F 30.8 °F 32.0 °F 81% 29.74 in 10.0 mi NNW 9.2 mph - N/A   Overcast
10:34 PM 37.4 °F 30.3 °F 32.0 °F 81% 29.74 in 10.0 mi NNW 10.4 mph - N/A Rain Light Rain
10:54 PM 37.4 °F 29.8 °F 33.8 °F 87% 29.73 in 10.0 mi NNW 11.5 mph - N/A Rain Light Rain
11:14 PM 37.4 °F 29.8 °F 32.0 °F 81% 29.73 in 10.0 mi North 11.5 mph - N/A Rain Light Rain
11:34 PM 37.4 °F 30.3 °F 32.0 °F 81% 29.73 in 10.0 mi NNW 10.4 mph - N/A   Light Drizzle
11:54 PM 37.4 °F 30.3 °F 32.0 °F 81% 29.73 in 10.0 mi NNW 10.4 mph - N/A Snow Light Snow